Location: Allison Elementary School
(34.0784°N, 117.7317°W)
Time: 18:08:32
(UTC+00:00)

Cosmos 1072 Rocket - Pass Details

Date: 15 November 2019
Orbit: 948 x 1009 km, 82.9° (Epoch: 07 December)

Event Time Altitude Azimuth Distance (km) Brightness Sun altitude
Rises 02:10:33 0° 352° (N) 3,629 7.5 -17.3°
Reaches altitude 10° 02:13:02 10° 352° (N) 2,684 6.8 -17.8°
Maximum altitude 02:19:10 84° 266° (W) 970 4.5 -19.0°
Drops below altitude 10° 02:25:21 10° 178° (S) 2,702 6.9 -20.3°
Sets 02:27:52 0° 178° (S) 3,654 7.6 -20.8°
